{"data":{"norad_id":56068,"intl_designator":"2023-043Y","name":"ONEWEB-0579","alt_names":[],"object_type":"PAYLOAD","status":"ACTIVE","operator":null,"country":"UK","launch_date":"2023-03-26","launch_site_code":"SRILR","launch_vehicle":null,"mission":null,"orbit_class":"UNKNOWN","rcs_meters":null,"size_class":null,"mass_kg":null,"dimensions":null,"purposes":["comms"],"wikipedia_slug":null,"has_3d_model":false,"image_url":null,"decayed_at":null,"tle_current":{"epoch":"2026-05-25T00:09:48.773664Z","epoch_age_seconds":84850,"freshness":"FRESH","line1":"1 56068U 23043Y   26145.00681451  .00000038  00000+0  60954-4 0  9998","line2":"2 56068  87.9261 248.5796 0001802  93.7462 266.3878 13.21824985155186","mean_motion":13.21824985,"eccentricity":0.0001802,"inclination_deg":87.9261,"raan_deg":248.5796,"arg_perigee_deg":93.7462,"mean_anomaly_deg":266.3878,"bstar":6.0954e-5,"rev_number":15518,"period_min":108.94029212196,"perigee_km":1176.3956642261,"apogee_km":1179.1188085088,"semimajor_km":7555.8942363675,"source":"CELESTRAK","updated_at":"2026-05-25T13:38:22.704722Z"}}}